Wind_Speed
20 18 16 14 12 11 9 8 8 7 6 5 5 4 4 4 4 4 4 4 5 5 4 4 4 4 4 3 3 3 3 4 5 5 7 8 9 10 12 13 14 16 17
22 20 18 16 14 12 11 9 9 8 7 7 6 6 5 5 5 5 5 5 5 5 5 5 5 5 4 4 3 3 3 4 5 5 7 8 9 11 12 13 15 16 17
24 22 20 17 15 14 12 11 10 10 9 9 8 7 7 6 5 5 5 5 6 6 6 6 6 5 5 4 4 4 4 4 5 6 7 8 9 11 12 14 15 17 18
26 23 21 19 16 15 13 12 11 11 11 10 10 9 8 7 7 6 6 6 6 6 6 6 6 6 5 5 4 4 5 5 5 6 8 9 10 11 13 14 16 17 19
27 25 22 20 18 16 14 13 13 12 12 12 11 10 10 9 8 7 7 7 7 7 7 7 6 6 5 5 5 5 5 6 6 7 8 9 11 12 14 15 17 18 20
29 26 23 21 19 17 15 14 14 13 13 13 12 12 11 10 9 8 8 7 7 7 7 7 7 6 6 5 5 6 6 6 7 8 9 10 12 13 15 16 18 20 21
30 27 24 22 20 18 16 15 15 14 14 14 13 13 12 11 10 9 8 8 8 8 7 7 7 7 6 6 6 6 7 7 8 9 10 11 13 15 17 18 20 21 23
32 29 26 24 21 19 18 16 15 15 15 15 15 14 14 13 11 10 9 9 9 8 8 8 8 8 7 7 7 7 8 8 9 10 12 13 15 16 18 20 21 23 24
33 30 27 25 23 21 19 17 16 16 16 16 16 16 15 14 12 11 10 10 9 9 9 8 8 8 8 8 8 9 9 10 11 12 14 15 16 18 20 21 23 24 25
35 32 29 26 24 22 20 19 17 17 17 17 17 17 16 15 13 12 11 10 10 10 9 9 9 9 9 9 9 10 11 12 13 14 16 17 18 20 21 23 24 26 27
37 34 31 28 25 23 21 20 18 18 18 18 18 18 17 15 14 13 12 11 11 11 10 10 10 10 10 10 11 12 12 13 14 16 17 18 20 21 23 24 26 27 28
37 35 32 30 27 24 22 20 19 19 19 19 19 19 18 17 16 15 14 13 12 12 12 11 12 12 12 12 13 13 14 15 16 18 19 20 22 23 25 26 27 28 29
39 36 34 32 29 26 23 21 20 20 20 20 20 20 20 19 18 17 16 15 14 14 14 13 13 13 14 14 15 15 16 17 18 20 21 23 24 25 26 28 29 30 30
41 38 35 32 29 27 24 22 21 21 20 21 21 22 21 21 20 19 18 17 16 16 16 15 15 15 16 16 17 17 18 20 21 22 23 25 26 27 28 29 30 31 32
40 39 36 33 30 28 26 23 22 21 22 22 22 23 23 23 22 21 20 19 19 18 18 18 18 18 18 18 19 20 21 22 23 24 25 27 28 29 30 30 31 32 32
39 37 35 32 29 28 26 25 23 22 22 23 23 23 24 24 23 23 22 22 21 20 20 20 20 20 20 20 21 22 23 24 25 26 27 29 30 31 32 32 32 32 33
38 36 36 33 31 30 28 26 24 23 23 23 24 24 25 25 25 25 24 24 23 23 22 22 22 22 22 23 24 24 25 26 28 29 30 31 32 33 33 33 33 34 34
37 36 36 35 34 32 30 28 26 25 25 25 25 25 26 26 27 27 27 26 26 25 25 25 25 25 26 26 26 27 28 29 30 31 32 33 34 34 34 34 34 34 35
41 38 35 34 35 34 33 31 29 28 27 27 27 27 27 28 28 29 29 29 28 28 28 28 28 28 29 29 29 30 31 32 33 34 35 36 36 36 36 35 35 35 35
40 40 39 37 34 34 34 32 32 32 31 30 30 30 29 29 30 30 31 31 31 31 31 31 31 31 31 32 32 33 34 35 35 36 37 38 38 37 36 36 36 36 36
41 40 40 40 39 37 35 34 32 33 33 33 33 33 33 33 33 32 32 33 33 34 34 34 34 34 34 35 35 35 36 37 38 39 39 39 39 38 37 37 37 37 37
41 41 41 40 39 39 39 39 38 37 36 36 35 35 36 36 36 36 36 36 35 35 36 37 37 37 37 38 39 40 39 39 40 41 41 40 39 39 38 37 37 38 38
40 40 42 42 41 41 41 40 40 39 39 38 38 38 38 37 37 37 37 38 38 38 38 39 40 40 40 41 42 43 43 41 40 40 40 40 40 39 38 38 38 38 38
40 40 40 41 42 42 41 40 41 41 40 40 40 40 40 40 39 39 39 39 40 40 40 41 41 42 42 43 44 44 45 45 44 42 40 39 39 39 38 38 38 38 39
41 41 41 41 41 42 43 43 42 42 42 42 42 42 41 41 41 41 41 42 42 43 43 44 44 44 45 45 45 45 45 45 44 43 41 40 40 39 39 39 38 39 39
40 41 42 43 43 43 43 44 43 43 44 44 45 44 44 44 44 44 44 44 45 45 46 46 47 47 46 46 46 45 45 44 43 43 42 41 41 41 40 40 40 40 40
Wind_Direction
217 219 221 221 221 222 224 227 230 229 228 228 228 227 232 240 246 252 262 273 280 284 289 294 299 304 310 317 327 338 350 3 10 9 8 6 5 5 4 3 1 358 356
217 219 221 221 222 223 225 228 228 226 224 223 221 222 228 236 243 251 259 268 275 280 285 287 288 291 295 300 310 322 338 350 355 358 359 358 1 1 0 359 357 355 353
216 218 220 221 222 223 225 227 226 224 222 219 219 221 226 232 240 250 260 267 273 279 283 283 283 284 288 293 302 313 325 333 340 348 349 353 357 357 356 354 353 351 350
215 217 219 220 221 222 222 223 224 223 222 218 218 222 226 230 237 248 259 266 273 279 282 283 282 282 285 290 298 306 313 321 332 341 345 350 350 350 350 349 349 348 347
215 217 217 220 221 220 220 220 222 222 220 218 219 223 227 231 237 246 254 264 273 279 281 281 280 281 282 287 293 301 309 319 329 335 340 341 342 343 344 344 344 343 343
214 216 216 218 219 219 218 218 220 220 220 220 221 224 227 232 237 244 251 261 271 277 279 279 279 280 281 286 292 300 308 316 324 328 332 334 336 338 339 340 340 340 340
213 215 216 218 219 219 218 218 219 220 220 221 222 225 228 232 237 244 251 259 267 273 277 279 280 279 282 287 294 301 309 316 320 324 328 330 333 335 336 337 337 337 337
212 214 215 218 219 220 219 220 220 221 222 223 223 225 228 231 237 245 251 257 263 269 275 278 280 283 286 291 297 303 309 314 317 321 325 328 330 332 333 334 334 334 334
211 212 214 217 219 221 221 221 222 223 223 224 225 226 228 231 237 243 250 256 262 268 274 278 282 286 291 295 300 305 310 313 317 320 323 325 327 329 330 331 331 331 331
210 211 213 216 219 221 221 223 224 225 226 227 228 229 230 233 238 243 248 255 261 267 272 277 282 287 292 297 302 307 310 314 317 319 321 323 325 326 327 328 328 329 329
210 212 213 215 218 220 222 224 227 228 230 231 232 232 233 236 240 245 250 255 261 266 271 276 282 287 292 297 302 306 310 312 315 317 318 320 322 323 324 325 325 326 327
209 210 213 215 217 219 222 226 230 233 233 234 235 236 237 239 242 247 252 256 262 267 271 275 281 286 290 295 299 303 306 309 311 313 315 317 319 320 321 322 322 323 324
209 208 212 214 215 218 222 226 231 236 237 237 238 239 240 242 245 248 253 257 262 267 271 275 279 284 289 293 297 300 303 307 309 311 313 315 316 317 319 319 319 320 321
212 209 209 211 215 219 223 227 232 236 239 240 241 242 243 245 248 251 254 258 263 267 271 275 279 283 287 291 295 299 302 305 307 309 310 312 313 314 316 316 317 317 318
215 212 210 210 214 219 224 228 232 236 240 242 243 244 245 247 249 253 257 260 263 267 271 276 279 283 287 291 295 298 301 302 304 306 308 310 311 312 313 314 314 315 316
216 214 213 212 216 221 226 230 234 238 242 245 246 247 248 249 251 254 257 260 264 268 272 276 280 283 286 289 292 294 296 299 301 304 305 307 308 309 310 311 312 313 313
220 219 217 218 220 224 228 233 238 243 246 248 250 251 251 252 252 255 257 261 264 268 272 275 279 282 285 288 290 292 294 297 299 301 303 304 305 306 308 309 310 311 311
225 224 222 225 226 227 231 236 240 247 250 252 254 255 255 255 255 257 259 261 264 268 271 274 277 281 284 286 289 291 294 295 297 299 301 302 303 304 305 306 308 309 310
234 233 230 231 232 233 236 239 244 247 251 255 258 260 260 260 259 259 260 262 264 267 270 273 277 280 282 285 287 290 293 295 296 297 299 300 301 302 303 304 306 307 308
238 238 238 239 239 239 241 245 247 249 253 256 259 262 263 263 262 262 262 263 265 267 270 273 276 279 281 283 286 289 291 293 294 295 297 298 299 300 301 302 304 306 306
240 241 242 244 244 244 245 247 250 252 254 257 260 263 263 264 263 263 264 266 267 268 270 272 275 278 280 283 285 287 290 292 293 294 295 296 297 298 299 301 303 304 305
242 243 245 246 247 247 249 252 255 256 258 260 263 264 264 265 265 265 265 267 268 270 271 273 275 277 280 282 285 287 288 289 291 293 294 295 295 296 298 299 300 302 303
243 245 246 247 248 250 251 253 255 258 260 261 262 263 264 264 265 265 266 267 269 271 273 276 277 277 280 283 285 287 287 288 288 290 291 292 292 294 295 296 298 300 301
242 245 248 249 249 250 252 253 255 257 259 260 261 263 263 264 265 266 267 269 271 273 275 278 279 280 281 283 285 286 287 288 289 289 289 289 291 292 294 296 297 298 300
240 243 246 249 250 251 253 254 256 256 258 260 261 262 262 263 264 266 268 270 272 274 276 278 279 280 281 283 284 285 287 287 288 288 289 290 291 292 293 295 296 297 298
241 243 246 248 250 252 253 254 255 257 258 259 260 261 262 264 264 266 268 271 273 274 276 278 279 280 281 283 283 284 285 286 286 287 288 289 290 292 293 294 295 296 297
Height
5883 5885 5887 5889 5890 5891 5892 5893 5894 5894 5895 5895 5895 5896 5896 5896 5896 5896 5896 5895 5895 5894 5893 5892 5892 5891 5890 5889 5887 5886 5886 5885 5883 5882 5881 5880 5879 5877 5875 5874 5872 5870 5868
5881 5883 5885 5887 5888 5890 5891 5892 5893 5893 5894 5894 5895 5895 5895 5895 5895 5895 5895 5895 5894 5893 5892 5892 5891 5890 5889 5888 5887 5886 5885 5884 5883 5882 5880 5879 5878 5876 5875 5873 5871 5869 5867
5878 5880 5883 5885 5886 5888 5889 5890 5891 5892 5893 5893 5894 5894 5894 5894 5894 5894 5894 5894 5893 5892 5892 5891 5890 5889 5888 5887 5886 5885 5884 5883 5882 5881 5880 5878 5877 5875 5874 5872 5870 5868 5866
5874 5877 5880 5882 5884 5886 5887 5888 5890 5891 5891 5892 5892 5893 5893 5893 5893 5893 5893 5893 5892 5892 5891 5890 5889 5888 5887 5886 5885 5884 5883 5882 5881 5880 5879 5877 5876 5874 5873 5871 5869 5867 5865
5871 5874 5877 5879 5882 5883 5885 5886 5888 5889 5890 5890 5891 5892 5892 5892 5892 5892 5892 5892 5891 5890 5890 5889 5888 5887 5886 5885 5884 5883 5882 5881 5880 5879 5878 5876 5875 5873 5871 5869 5867 5865 5863
5868 5871 5874 5876 5879 5881 5883 5884 5886 5887 5888 5889 5889 5890 5891 5891 5891 5891 5891 5890 5890 5889 5889 5888 5887 5886 5885 5884 5883 5882 5881 5880 5879 5878 5877 5875 5874 5872 5870 5868 5866 5863 5861
5864 5867 5870 5873 5876 5878 5880 5882 5883 5885 5886 5887 5888 5888 5889 5889 5889 5890 5889 5889 5889 5888 5887 5887 5886 5885 5884 5883 5882 5881 5880 5879 5878 5877 5875 5874 5872 5870 5868 5866 5864 5861 5858
5860 5863 5867 5870 5873 5875 5878 5879 5881 5882 5883 5885 5885 5886 5887 5887 5888 5888 5888 5887 5887 5887 5886 5885 5885 5884 5883 5882 5881 5880 5879 5877 5876 5875 5874 5872 5870 5868 5866 5864 5861 5859 5856
5855 5859 5863 5866 5869 5872 5875 5877 5878 5880 5881 5882 5883 5884 5885 5885 5886 5886 5886 5886 5886 5885 5884 5884 5883 5882 5881 5880 5879 5878 5877 5876 5874 5873 5872 5870 5868 5866 5864 5861 5859 5856 5853
5849 5854 5858 5862 5865 5868 5871 5873 5875 5877 5878 5879 5880 5881 5882 5883 5883 5884 5884 5884 5884 5883 5883 5882 5881 5880 5880 5878 5877 5876 5875 5874 5872 5871 5869 5868 5865 5863 5861 5858 5855 5852 5849
5844 5849 5854 5858 5861 5864 5867 5870 5872 5874 5875 5876 5878 5879 5879 5880 5881 5881 5881 5881 5881 5881 5881 5880 5879 5878 5877 5876 5875 5874 5873 5871 5870 5868 5867 5865 5863 5860 5858 5855 5852 5849 5846
5838 5844 5849 5853 5857 5860 5863 5866 5868 5870 5872 5873 5875 5876 5877 5877 5878 5878 5879 5879 5879 5879 5878 5877 5877 5876 5875 5874 5873 5872 5870 5869 5867 5865 5863 5861 5859 5857 5854 5851 5848 5845 5841
5833 5838 5843 5847 5851 5855 5858 5861 5864 5866 5868 5869 5871 5872 5873 5874 5875 5875 5876 5876 5876 5876 5875 5875 5874 5873 5872 5871 5870 5869 5867 5865 5864 5862 5860 5858 5856 5853 5850 5847 5844 5840 5837
5828 5832 5837 5842 5846 5850 5854 5857 5860 5862 5864 5865 5867 5869 5870 5870 5871 5872 5872 5872 5872 5872 5872 5872 5871 5870 5869 5868 5867 5865 5863 5862 5860 5858 5856 5854 5851 5849 5846 5843 5839 5835 5832
5823 5828 5832 5836 5840 5844 5848 5852 5855 5857 5859 5861 5863 5864 5866 5867 5867 5868 5868 5869 5868 5868 5868 5868 5867 5866 5865 5864 5863 5861 5860 5858 5856 5854 5852 5850 5847 5844 5841 5838 5835 5831 5827
5819 5823 5828 5831 5835 5839 5843 5846 5849 5852 5854 5856 5858 5859 5861 5862 5863 5864 5864 5865 5864 5864 5864 5864 5863 5863 5861 5860 5859 5858 5856 5854 5852 5850 5847 5845 5842 5839 5836 5833 5829 5826 5822
5814 5819 5823 5827 5830 5834 5838 5841 5844 5846 5849 5851 5853 5854 5856 5857 5858 5859 5860 5860 5860 5860 5860 5859 5859 5858 5857 5856 5855 5853 5851 5849 5847 5845 5842 5840 5837 5834 5830 5827 5823 5820 5816
5809 5813 5818 5822 5825 5829 5832 5835 5838 5841 5843 5845 5847 5849 5850 5852 5853 5854 5854 5855 5855 5855 5855 5854 5854 5853 5852 5851 5849 5848 5846 5844 5841 5839 5836 5833 5831 5827 5824 5821 5817 5814 5810
5803 5807 5812 5816 5820 5823 5826 5829 5832 5835 5837 5840 5841 5843 5844 5846 5846 5847 5848 5848 5849 5849 5849 5849 5848 5847 5846 5845 5844 5842 5840 5837 5835 5832 5830 5827 5824 5821 5817 5814 5811 5807 5803
5796 5802 5806 5810 5814 5817 5820 5823 5826 5829 5831 5833 5835 5837 5838 5839 5840 5840 5841 5842 5842 5842 5842 5842 5842 5841 5840 5839 5837 5835 5833 5831 5828 5825 5823 5820 5817 5813 5810 5807 5804 5800 5796
5791 5796 5800 5804 5808 5811 5814 5817 5819 5822 5824 5826 5828 5830 5831 5832 5832 5833 5834 5834 5835 5835 5835 5835 5834 5834 5832 5831 5830 5829 5826 5823 5821 5818 5815 5812 5809 5806 5802 5799 5796 5792 5788
5786 5790 5794 5797 5801 5804 5807 5810 5812 5815 5817 5819 5821 5822 5823 5824 5825 5826 5826 5826 5827 5827 5827 5827 5826 5825 5824 5823 5821 5820 5819 5817 5813 5809 5806 5803 5800 5797 5795 5791 5788 5785 5781
5779 5783 5787 5790 5793 5797 5800 5802 5804 5807 5809 5811 5813 5814 5815 5816 5817 5817 5818 5818 5818 5818 5818 5818 5817 5817 5816 5814 5812 5810 5809 5808 5805 5802 5798 5795 5792 5789 5787 5783 5780 5777 5773
5772 5776 5780 5783 5786 5789 5791 5794 5796 5799 5801 5802 5804 5805 5806 5807 5808 5809 5809 5809 5809 5809 5809 5808 5808 5807 5806 5805 5802 5800 5798 5796 5794 5793 5790 5786 5783 5781 5778 5775 5771 5768 5764
5765 5768 5772 5775 5778 5780 5783 5786 5788 5790 5792 5793 5795 5796 5797 5798 5798 5799 5799 5799 5799 5799 5799 5798 5798 5797 5796 5794 5793 5791 5788 5786 5784 5782 5780 5777 5774 5771 5769 5766 5763 5759 5756
5757 5760 5763 5767 5770 5772 5775 5777 5779 5781 5782 5783 5785 5786 5787 5788 5788 5789 5789 5789 5789 5789 5789 5788 5787 5786 5785 5784 5782 5780 5778 5776 5774 5771 5769 5767 5764 5762 5759 5756 5753 5750 5746